Time,TemperatureF,DewpointF,PressureIn,WindDirection,WindDirectionDegrees,WindSpeedMPH,WindSpeedGustMPH,Humidity,HourlyPrecipIn,Conditions,Clouds,dailyrainin,SoftwareType,DateUTC
2013-04-04 00:00:00,33.3,21.3,30.32,ESE,123,8.0,8.0,61,0.00,,,0.00,Wunderground v.1.15,2013-04-04 05:00:00,
2013-04-04 00:04:00,33.3,21.7,30.32,ESE,119,8.0,8.0,62,0.00,,,0.00,Wunderground v.1.15,2013-04-04 05:04:00,
2013-04-04 00:06:00,33.2,21.6,30.32,ESE,122,8.0,8.0,62,0.00,,,0.00,Wunderground v.1.15,2013-04-04 05:06:00,
2013-04-04 00:08:00,33.1,21.5,30.32,ESE,119,8.0,8.0,62,0.00,,,0.00,Wunderground v.1.15,2013-04-04 05:08:00,
2013-04-04 00:10:00,33.1,21.5,30.32,ESE,117,8.0,8.0,62,0.00,,,0.00,Wunderground v.1.15,2013-04-04 05:10:00,
2013-04-04 00:14:00,32.9,21.7,30.32,ESE,119,7.0,8.0,63,0.00,,,0.00,Wunderground v.1.15,2013-04-04 05:14:00,
2013-04-04 00:18:00,32.9,21.7,30.32,ESE,119,7.0,8.0,63,0.00,,,0.00,Wunderground v.1.15,2013-04-04 05:18:00,
2013-04-04 00:20:00,32.8,21.6,30.32,ESE,119,7.0,7.0,63,0.00,,,0.00,Wunderground v.1.15,2013-04-04 05:20:00,
2013-04-04 00:22:00,32.8,21.6,30.31,ESE,120,7.0,7.0,63,0.00,,,0.00,Wunderground v.1.15,2013-04-04 05:22:00,
2013-04-04 00:28:00,32.6,21.4,30.31,ESE,123,7.0,7.0,63,0.00,,,0.00,Wunderground v.1.15,2013-04-04 05:28:00,
2013-04-04 00:30:00,32.6,21.4,30.31,ESE,120,7.0,7.0,63,0.00,,,0.00,Wunderground v.1.15,2013-04-04 05:30:00,
2013-04-04 00:38:00,32.6,21.0,30.31,ESE,123,7.0,8.0,62,0.00,,,0.00,Wunderground v.1.15,2013-04-04 05:38:00,
2013-04-04 00:40:00,32.6,21.0,30.31,SE,127,7.0,7.0,62,0.00,,,0.00,Wunderground v.1.15,2013-04-04 05:40:00,
2013-04-04 00:42:00,32.6,21.0,30.31,SE,124,7.0,7.0,62,0.00,,,0.00,Wunderground v.1.15,2013-04-04 05:42:00,
2013-04-04 00:48:00,32.6,21.0,30.31,ESE,121,7.0,8.0,62,0.00,,,0.00,Wunderground v.1.15,2013-04-04 05:48:00,
2013-04-04 00:50:00,32.6,21.0,30.31,ESE,122,7.0,7.0,62,0.00,,,0.00,Wunderground v.1.15,2013-04-04 05:50:00,
2013-04-04 00:54:00,32.5,21.3,30.31,ESE,122,7.0,8.0,63,0.00,,,0.00,Wunderground v.1.15,2013-04-04 05:54:00,
2013-04-04 00:56:00,32.5,21.3,30.31,SE,124,7.0,8.0,63,0.00,,,0.00,Wunderground v.1.15,2013-04-04 05:56:00,
2013-04-04 01:02:00,32.6,21.0,30.31,ESE,120,7.0,9.0,62,0.00,,,0.00,Wunderground v.1.15,2013-04-04 06:02:00,
2013-04-04 01:08:00,32.7,21.5,30.30,ESE,122,7.0,9.0,63,0.00,,,0.00,Wunderground v.1.15,2013-04-04 06:08:00,
2013-04-04 01:10:00,32.7,21.5,30.30,ESE,118,7.0,7.0,63,0.00,,,0.00,Wunderground v.1.15,2013-04-04 06:10:00,
2013-04-04 01:16:00,32.5,21.3,30.30,ESE,121,7.0,7.0,63,0.00,,,0.00,Wunderground v.1.15,2013-04-04 06:16:00,
2013-04-04 01:18:00,32.5,21.3,30.30,ESE,122,7.0,7.0,63,0.00,,,0.00,Wunderground v.1.15,2013-04-04 06:18:00,
2013-04-04 01:20:00,32.5,21.3,30.30,ESE,119,7.0,7.0,63,0.00,,,0.00,Wunderground v.1.15,2013-04-04 06:20:00,
2013-04-04 01:26:00,32.4,21.2,30.30,SE,127,7.0,7.0,63,0.00,,,0.00,Wunderground v.1.15,2013-04-04 06:26:00,
2013-04-04 01:28:00,32.4,21.2,30.30,East,91,7.0,7.0,63,0.00,,,0.00,Wunderground v.1.15,2013-04-04 06:28:00,
2013-04-04 01:30:00,32.4,21.2,30.30,SE,127,7.0,7.0,63,0.00,,,0.00,Wunderground v.1.15,2013-04-04 06:30:00,
2013-04-04 01:32:00,32.3,21.1,30.30,ESE,116,6.0,7.0,63,0.00,,,0.00,Wunderground v.1.15,2013-04-04 06:32:00,
2013-04-04 01:34:00,32.3,21.1,30.30,ESE,121,6.0,7.0,63,0.00,,,0.00,Wunderground v.1.15,2013-04-04 06:34:00,
2013-04-04 01:38:00,32.2,21.0,30.29,ESE,113,6.0,7.0,63,0.00,,,0.00,Wunderground v.1.15,2013-04-04 06:38:00,
2013-04-04 01:40:00,32.2,21.0,30.29,ESE,120,6.0,7.0,63,0.00,,,0.00,Wunderground v.1.15,2013-04-04 06:40:00,
2013-04-04 01:42:00,32.2,21.0,30.29,ESE,117,6.0,7.0,63,0.00,,,0.00,Wunderground v.1.15,2013-04-04 06:42:00,
2013-04-04 01:48:00,32.1,20.9,30.29,ESE,122,6.0,7.0,63,0.00,,,0.00,Wunderground v.1.15,2013-04-04 06:48:00,
2013-04-04 01:50:00,32.1,20.9,30.29,ESE,120,6.0,7.0,63,0.00,,,0.00,Wunderground v.1.15,2013-04-04 06:50:00,
2013-04-04 01:52:00,32.1,21.3,30.29,ESE,117,7.0,7.0,64,0.00,,,0.00,Wunderground v.1.15,2013-04-04 06:52:00,
2013-04-04 01:58:00,32.0,21.2,30.28,ESE,117,7.0,7.0,64,0.00,,,0.00,Wunderground v.1.15,2013-04-04 06:58:00,
2013-04-04 02:02:00,32.1,20.9,30.28,ESE,115,7.0,8.0,63,0.00,,,0.00,Wunderground v.1.15,2013-04-04 07:02:00,
2013-04-04 02:04:00,32.1,20.9,30.28,ESE,119,7.0,8.0,63,0.00,,,0.00,Wunderground v.1.15,2013-04-04 07:04:00,
2013-04-04 02:06:00,32.0,20.8,30.28,SE,137,7.0,8.0,63,0.00,,,0.00,Wunderground v.1.15,2013-04-04 07:06:00,
2013-04-04 02:08:00,32.0,20.8,30.28,ESE,117,7.0,8.0,63,0.00,,,0.00,Wunderground v.1.15,2013-04-04 07:08:00,
2013-04-04 02:10:00,32.0,21.2,30.28,ESE,123,7.0,7.0,64,0.00,,,0.00,Wunderground v.1.15,2013-04-04 07:10:00,
2013-04-04 02:14:00,31.9,21.1,30.28,SE,127,7.0,7.0,64,0.00,,,0.00,Wunderground v.1.15,2013-04-04 07:14:00,
2013-04-04 02:18:00,32.0,21.2,30.28,SE,127,7.0,7.0,64,0.00,,,0.00,Wunderground v.1.15,2013-04-04 07:18:00,
2013-04-04 02:24:00,31.9,21.1,30.28,SE,131,7.0,7.0,64,0.00,,,0.00,Wunderground v.1.15,2013-04-04 07:24:00,
2013-04-04 02:28:00,31.8,21.0,30.27,ESE,117,6.0,7.0,64,0.00,,,0.00,Wunderground v.1.15,2013-04-04 07:28:00,
2013-04-04 02:30:00,31.8,21.0,30.27,ESE,120,6.0,7.0,64,0.00,,,0.00,Wunderground v.1.15,2013-04-04 07:30:00,
2013-04-04 02:32:00,31.8,21.0,30.27,SE,124,6.0,7.0,64,0.00,,,0.00,Wunderground v.1.15,2013-04-04 07:32:00,
2013-04-04 02:36:00,31.8,21.0,30.27,ESE,122,7.0,8.0,64,0.00,,,0.00,Wunderground v.1.15,2013-04-04 07:36:00,
2013-04-04 02:38:00,31.8,21.0,30.26,ESE,123,7.0,8.0,64,0.00,,,0.00,Wunderground v.1.15,2013-04-04 07:38:00,
2013-04-04 02:40:00,31.8,21.0,30.27,ESE,123,7.0,7.0,64,0.00,,,0.00,Wunderground v.1.15,2013-04-04 07:40:00,
2013-04-04 02:46:00,31.7,20.9,30.26,ESE,122,7.0,8.0,64,0.00,,,0.00,Wunderground v.1.15,2013-04-04 07:46:00,
2013-04-04 02:48:00,31.7,20.9,30.26,ESE,122,6.0,8.0,64,0.00,,,0.00,Wunderground v.1.15,2013-04-04 07:48:00,
2013-04-04 02:50:00,31.6,20.8,30.26,SE,127,6.0,7.0,64,0.00,,,0.00,Wunderground v.1.15,2013-04-04 07:50:00,
2013-04-04 02:52:00,31.5,20.7,30.26,SE,131,6.0,7.0,64,0.00,,,0.00,Wunderground v.1.15,2013-04-04 07:52:00,
2013-04-04 02:58:00,31.5,20.7,30.26,SE,126,7.0,7.0,64,0.00,,,0.00,Wunderground v.1.15,2013-04-04 07:58:00,
2013-04-04 03:00:00,31.6,20.4,30.26,SE,127,7.0,7.0,63,0.00,,,0.00,Wunderground v.1.15,2013-04-04 08:00:00,
2013-04-04 03:04:00,31.6,20.4,30.26,SE,127,7.0,7.0,63,0.00,,,0.00,Wunderground v.1.15,2013-04-04 08:04:00,
2013-04-04 03:08:00,31.6,20.4,30.26,SE,129,7.0,7.0,63,0.00,,,0.00,Wunderground v.1.15,2013-04-04 08:08:00,
2013-04-04 03:12:00,31.6,20.4,30.26,ESE,123,7.0,7.0,63,0.00,,,0.00,Wunderground v.1.15,2013-04-04 08:12:00,
2013-04-04 03:14:00,31.7,20.5,30.25,SE,127,7.0,8.0,63,0.00,,,0.00,Wunderground v.1.15,2013-04-04 08:14:00,
2013-04-04 03:18:00,31.8,20.3,30.25,ESE,122,7.0,8.0,62,0.00,,,0.00,Wunderground v.1.15,2013-04-04 08:18:00,
2013-04-04 03:22:00,31.8,20.3,30.25,SE,124,7.0,8.0,62,0.00,,,0.00,Wunderground v.1.15,2013-04-04 08:22:00,
2013-04-04 03:24:00,31.8,20.6,30.25,SE,133,7.0,8.0,63,0.00,,,0.00,Wunderground v.1.15,2013-04-04 08:24:00,
2013-04-04 03:28:00,31.8,20.3,30.25,ESE,121,7.0,8.0,62,0.00,,,0.00,Wunderground v.1.15,2013-04-04 08:28:00,
2013-04-04 03:30:00,31.8,20.6,30.25,SE,132,7.0,7.0,63,0.00,,,0.00,Wunderground v.1.15,2013-04-04 08:30:00,
2013-04-04 03:32:00,31.8,20.6,30.25,ESE,113,7.0,8.0,63,0.00,,,0.00,Wunderground v.1.15,2013-04-04 08:32:00,
2013-04-04 03:36:00,31.8,20.6,30.25,SE,127,8.0,8.0,63,0.00,,,0.00,Wunderground v.1.15,2013-04-04 08:36:00,
2013-04-04 03:38:00,31.8,20.6,30.25,SE,124,8.0,8.0,63,0.00,,,0.00,Wunderground v.1.15,2013-04-04 08:38:00,
2013-04-04 03:42:00,31.8,20.6,30.25,SE,141,8.0,8.0,63,0.00,,,0.00,Wunderground v.1.15,2013-04-04 08:42:00,
2013-04-04 03:48:00,31.7,20.5,30.25,SE,134,7.0,9.0,63,0.00,,,0.00,Wunderground v.1.15,2013-04-04 08:48:00,
2013-04-04 03:50:00,31.7,20.5,30.25,ESE,123,7.0,7.0,63,0.00,,,0.00,Wunderground v.1.15,2013-04-04 08:50:00,
2013-04-04 03:52:00,31.7,20.5,30.25,ESE,118,7.0,7.0,63,0.00,,,0.00,Wunderground v.1.15,2013-04-04 08:52:00,
2013-04-04 03:54:00,31.6,20.4,30.25,SE,145,7.0,7.0,63,0.00,,,0.00,Wunderground v.1.15,2013-04-04 08:54:00,
2013-04-04 03:58:00,31.5,20.7,30.25,ESE,123,7.0,7.0,64,0.00,,,0.00,Wunderground v.1.15,2013-04-04 08:58:00,
2013-04-04 04:00:00,31.4,20.6,30.25,SE,133,7.0,7.0,64,0.00,,,0.00,Wunderground v.1.15,2013-04-04 09:00:00,
2013-04-04 04:02:00,31.4,21.0,30.25,SE,127,7.0,8.0,65,0.00,,,0.00,Wunderground v.1.15,2013-04-04 09:02:00,
2013-04-04 04:08:00,31.2,20.8,30.25,SE,127,7.0,8.0,65,0.00,,,0.00,Wunderground v.1.15,2013-04-04 09:08:00,
2013-04-04 04:12:00,31.2,21.2,30.25,SE,137,7.0,7.0,66,0.00,,,0.00,Wunderground v.1.15,2013-04-04 09:12:00,
2013-04-04 04:14:00,31.1,21.1,30.25,SE,133,7.0,7.0,66,0.00,,,0.00,Wunderground v.1.15,2013-04-04 09:14:00,
2013-04-04 04:18:00,31.0,21.0,30.25,SE,131,7.0,7.0,66,0.00,,,0.00,Wunderground v.1.15,2013-04-04 09:18:00,
2013-04-04 04:22:00,30.9,21.2,30.25,SE,124,6.0,7.0,67,0.00,,,0.00,Wunderground v.1.15,2013-04-04 09:22:00,
2013-04-04 04:28:00,30.7,21.0,30.24,ESE,120,6.0,7.0,67,0.00,,,0.00,Wunderground v.1.15,2013-04-04 09:28:00,
2013-04-04 04:30:00,30.6,20.9,30.24,SE,127,6.0,7.0,67,0.00,,,0.00,Wunderground v.1.15,2013-04-04 09:30:00,
2013-04-04 04:36:00,30.6,21.3,30.24,SE,130,6.0,7.0,68,0.00,,,0.00,Wunderground v.1.15,2013-04-04 09:36:00,
2013-04-04 04:38:00,30.5,21.2,30.24,ESE,120,6.0,7.0,68,0.00,,,0.00,Wunderground v.1.15,2013-04-04 09:38:00,
2013-04-04 04:40:00,30.5,21.2,30.24,SE,133,6.0,6.0,68,0.00,,,0.00,Wunderground v.1.15,2013-04-04 09:40:00,
2013-04-04 04:44:00,30.4,21.4,30.24,SE,132,6.0,7.0,69,0.00,,,0.00,Wunderground v.1.15,2013-04-04 09:44:00,
2013-04-04 04:46:00,30.3,21.3,30.24,SE,132,5.0,7.0,69,0.00,,,0.00,Wunderground v.1.15,2013-04-04 09:46:00,
2013-04-04 04:50:00,30.2,21.2,30.24,ESE,119,5.0,7.0,69,0.00,,,0.00,Wunderground v.1.15,2013-04-04 09:50:00,
2013-04-04 04:52:00,30.2,21.2,30.24,SE,127,5.0,7.0,69,0.00,,,0.00,Wunderground v.1.15,2013-04-04 09:52:00,
2013-04-04 04:54:00,30.2,21.2,30.23,ESE,121,5.0,7.0,69,0.00,,,0.00,Wunderground v.1.15,2013-04-04 09:54:00,
2013-04-04 05:00:00,30.0,21.4,30.23,SE,137,5.0,5.0,70,0.00,,,0.00,Wunderground v.1.15,2013-04-04 10:00:00,
2013-04-04 05:06:00,29.9,21.3,30.23,SE,136,4.0,7.0,70,0.00,,,0.00,Wunderground v.1.15,2013-04-04 10:06:00,
2013-04-04 05:08:00,30.0,21.4,30.23,SE,132,4.0,7.0,70,0.00,,,0.00,Wunderground v.1.15,2013-04-04 10:08:00,
2013-04-04 05:10:00,30.0,21.4,30.23,SE,131,4.0,7.0,70,0.00,,,0.00,Wunderground v.1.15,2013-04-04 10:10:00,
2013-04-04 05:14:00,30.0,21.4,30.23,SE,137,4.0,7.0,70,0.00,,,0.00,Wunderground v.1.15,2013-04-04 10:14:00,
2013-04-04 05:20:00,29.8,21.2,30.23,SE,141,3.0,7.0,70,0.00,,,0.00,Wunderground v.1.15,2013-04-04 10:20:00,
2013-04-04 05:22:00,29.9,21.3,30.23,SE,131,3.0,7.0,70,0.00,,,0.00,Wunderground v.1.15,2013-04-04 10:22:00,
2013-04-04 05:24:00,29.8,21.2,30.23,SE,136,3.0,7.0,70,0.00,,,0.00,Wunderground v.1.15,2013-04-04 10:24:00,
2013-04-04 05:30:00,29.8,21.2,30.23,SE,133,4.0,7.0,70,0.00,,,0.00,Wunderground v.1.15,2013-04-04 10:30:00,
2013-04-04 05:32:00,29.8,21.5,30.23,SE,143,4.0,7.0,71,0.00,,,0.00,Wunderground v.1.15,2013-04-04 10:32:00,
2013-04-04 05:34:00,29.7,21.4,30.23,SE,136,3.0,7.0,71,0.00,,,0.00,Wunderground v.1.15,2013-04-04 10:34:00,
2013-04-04 05:36:00,29.7,21.4,30.23,SE,137,3.0,7.0,71,0.00,,,0.00,Wunderground v.1.15,2013-04-04 10:36:00,
2013-04-04 05:38:00,29.6,21.7,30.23,SE,137,3.0,7.0,72,0.00,,,0.00,Wunderground v.1.15,2013-04-04 10:38:00,
2013-04-04 05:40:00,29.6,21.7,30.23,SE,141,3.0,3.0,72,0.00,,,0.00,Wunderground v.1.15,2013-04-04 10:40:00,
2013-04-04 05:48:00,29.5,21.9,30.23,SE,134,3.0,7.0,73,0.00,,,0.00,Wunderground v.1.15,2013-04-04 10:48:00,
2013-04-04 05:52:00,29.5,21.9,30.22,SE,136,3.0,7.0,73,0.00,,,0.00,Wunderground v.1.15,2013-04-04 10:52:00,
2013-04-04 05:56:00,29.5,21.9,30.22,SE,134,3.0,7.0,73,0.00,,,0.00,Wunderground v.1.15,2013-04-04 10:56:00,
2013-04-04 06:02:00,29.3,22.0,30.22,SE,135,1.0,7.0,74,0.00,,,0.00,Wunderground v.1.15,2013-04-04 11:02:00,
2013-04-04 06:06:00,29.1,21.8,30.22,SSE,151,1.0,7.0,74,0.00,,,0.00,Wunderground v.1.15,2013-04-04 11:06:00,
2013-04-04 06:10:00,29.2,21.9,30.22,SSE,149,1.0,7.0,74,0.00,,,0.00,Wunderground v.1.15,2013-04-04 11:10:00,
2013-04-04 06:12:00,29.2,21.9,30.22,SSE,150,1.0,7.0,74,0.00,,,0.00,Wunderground v.1.15,2013-04-04 11:12:00,
2013-04-04 06:16:00,29.2,21.9,30.22,SE,139,1.0,7.0,74,0.00,,,0.00,Wunderground v.1.15,2013-04-04 11:16:00,
2013-04-04 06:18:00,29.2,21.9,30.22,SE,143,1.0,7.0,74,0.00,,,0.00,Wunderground v.1.15,2013-04-04 11:18:00,
2013-04-04 06:24:00,29.3,22.0,30.22,SE,142,2.0,7.0,74,0.00,,,0.00,Wunderground v.1.15,2013-04-04 11:24:00,
2013-04-04 06:26:00,29.3,22.0,30.22,SE,133,2.0,7.0,74,0.00,,,0.00,Wunderground v.1.15,2013-04-04 11:26:00,
2013-04-04 06:32:00,29.3,22.0,30.22,SE,141,2.0,7.0,74,0.00,,,0.00,Wunderground v.1.15,2013-04-04 11:32:00,
2013-04-04 06:36:00,29.2,21.9,30.22,SE,140,2.0,7.0,74,0.00,,,0.00,Wunderground v.1.15,2013-04-04 11:36:00,
2013-04-04 06:38:00,29.2,21.9,30.22,SE,141,2.0,7.0,74,0.00,,,0.00,Wunderground v.1.15,2013-04-04 11:38:00,
2013-04-04 06:42:00,29.4,22.1,30.22,SE,141,2.0,7.0,74,0.00,,,0.00,Wunderground v.1.15,2013-04-04 11:42:00,
2013-04-04 06:44:00,29.5,22.2,30.22,SE,141,2.0,7.0,74,0.00,,,0.00,Wunderground v.1.15,2013-04-04 11:44:00,
2013-04-04 06:48:00,29.6,22.3,30.22,SE,145,2.0,7.0,74,0.00,,,0.00,Wunderground v.1.15,2013-04-04 11:48:00,
2013-04-04 06:50:00,29.6,22.0,30.23,SE,139,2.0,7.0,73,0.00,,,0.00,Wunderground v.1.15,2013-04-04 11:50:00,
2013-04-04 06:54:00,29.8,22.2,30.23,SE,139,2.0,7.0,73,0.00,,,0.00,Wunderground v.1.15,2013-04-04 11:54:00,
2013-04-04 06:58:00,30.0,22.4,30.23,SE,141,2.0,7.0,73,0.00,,,0.00,Wunderground v.1.15,2013-04-04 11:58:00,
2013-04-04 07:00:00,30.1,22.5,30.22,SE,141,2.0,2.0,73,0.00,,,0.00,Wunderground v.1.15,2013-04-04 12:00:00,
2013-04-04 07:06:00,30.3,22.7,30.23,SE,141,1.0,7.0,73,0.00,,,0.00,Wunderground v.1.15,2013-04-04 12:06:00,
2013-04-04 07:08:00,30.6,23.0,30.23,SE,141,1.0,7.0,73,0.00,,,0.00,Wunderground v.1.15,2013-04-04 12:08:00,
2013-04-04 07:10:00,30.8,23.2,30.23,SE,139,1.0,7.0,73,0.00,,,0.00,Wunderground v.1.15,2013-04-04 12:10:00,
2013-04-04 07:14:00,31.5,23.5,30.23,SE,139,1.0,7.0,72,0.00,,,0.00,Wunderground v.1.15,2013-04-04 12:14:00,
2013-04-04 07:16:00,32.0,24.0,30.23,SE,134,0.0,7.0,72,0.00,,,0.00,Wunderground v.1.15,2013-04-04 12:16:00,
2013-04-04 07:18:00,32.4,24.4,30.23,SE,133,0.0,7.0,72,0.00,,,0.00,Wunderground v.1.15,2013-04-04 12:18:00,
2013-04-04 07:20:00,32.6,24.9,30.23,SSE,150,0.0,7.0,73,0.00,,,0.00,Wunderground v.1.15,2013-04-04 12:20:00,
2013-04-04 07:24:00,33.3,25.2,30.23,SSE,151,0.0,7.0,72,0.00,,,0.00,Wunderground v.1.15,2013-04-04 12:24:00,
2013-04-04 07:28:00,33.9,25.1,30.23,SSE,150,0.0,7.0,70,0.00,,,0.00,Wunderground v.1.15,2013-04-04 12:28:00,
2013-04-04 07:30:00,34.1,25.7,30.23,SSE,150,0.0,7.0,71,0.00,,,0.00,Wunderground v.1.15,2013-04-04 12:30:00,
2013-04-04 07:32:00,34.3,25.5,30.23,SSE,151,0.0,7.0,70,0.00,,,0.00,Wunderground v.1.15,2013-04-04 12:32:00,
2013-04-04 07:34:00,34.5,25.4,30.23,SSE,151,0.0,7.0,69,0.00,,,0.00,Wunderground v.1.15,2013-04-04 12:34:00,
2013-04-04 07:36:00,34.8,25.3,30.23,SSE,150,0.0,7.0,68,0.00,,,0.00,Wunderground v.1.15,2013-04-04 12:36:00,
2013-04-04 07:38:00,35.1,25.6,30.23,SSE,155,0.0,7.0,68,0.00,,,0.00,Wunderground v.1.15,2013-04-04 12:38:00,
2013-04-04 07:42:00,35.7,26.2,30.23,SSE,158,0.0,7.0,68,0.00,,,0.00,Wunderground v.1.15,2013-04-04 12:42:00,
2013-04-04 07:44:00,35.9,26.0,30.23,SSE,161,0.0,7.0,67,0.00,,,0.00,Wunderground v.1.15,2013-04-04 12:44:00,
2013-04-04 07:48:00,36.4,26.1,30.23,South,172,1.0,7.0,66,0.00,,,0.00,Wunderground v.1.15,2013-04-04 12:48:00,
2013-04-04 07:50:00,36.7,26.0,30.23,South,176,1.0,7.0,65,0.00,,,0.00,Wunderground v.1.15,2013-04-04 12:50:00,
2013-04-04 07:54:00,37.1,26.4,30.23,South,183,1.0,7.0,65,0.00,,,0.00,Wunderground v.1.15,2013-04-04 12:54:00,
2013-04-04 07:58:00,37.8,26.3,30.23,SSE,159,1.0,7.0,63,0.00,,,0.00,Wunderground v.1.15,2013-04-04 12:58:00,
2013-04-04 08:00:00,38.0,26.1,30.23,SSE,152,1.0,7.0,62,0.00,,,0.00,Wunderground v.1.15,2013-04-04 13:00:00,
2013-04-04 08:02:00,38.2,25.9,30.23,SE,137,1.0,7.0,61,0.00,,,0.00,Wunderground v.1.15,2013-04-04 13:02:00,
2013-04-04 08:08:00,38.1,25.0,30.22,South,186,2.0,7.0,59,0.00,,,0.00,Wunderground v.1.15,2013-04-04 13:08:00,
2013-04-04 08:10:00,38.0,25.3,30.23,SSE,150,2.0,7.0,60,0.00,,,0.00,Wunderground v.1.15,2013-04-04 13:10:00,
2013-04-04 08:14:00,38.3,26.0,30.23,South,190,3.0,7.0,61,0.00,,,0.00,Wunderground v.1.15,2013-04-04 13:14:00,
2013-04-04 08:16:00,38.3,26.0,30.22,SSE,160,3.0,7.0,61,0.00,,,0.00,Wunderground v.1.15,2013-04-04 13:16:00,
2013-04-04 08:18:00,38.4,25.7,30.22,SSE,168,3.0,7.0,60,0.00,,,0.00,Wunderground v.1.15,2013-04-04 13:18:00,
2013-04-04 08:20:00,38.7,26.0,30.22,South,181,3.0,7.0,60,0.00,,,0.00,Wunderground v.1.15,2013-04-04 13:20:00,
2013-04-04 08:24:00,38.9,25.4,30.22,South,175,4.0,7.0,58,0.00,,,0.00,Wunderground v.1.15,2013-04-04 13:24:00,
2013-04-04 08:30:00,39.2,26.1,30.22,South,191,3.0,7.0,59,0.00,,,0.00,Wunderground v.1.15,2013-04-04 13:30:00,
2013-04-04 08:32:00,39.3,26.2,30.22,SSW,193,3.0,7.0,59,0.00,,,0.00,Wunderground v.1.15,2013-04-04 13:32:00,
2013-04-04 08:38:00,39.6,26.0,30.21,SSW,207,3.0,7.0,58,0.00,,,0.00,Wunderground v.1.15,2013-04-04 13:38:00,
2013-04-04 08:40:00,39.6,26.4,30.21,SSW,192,3.0,3.0,59,0.00,,,0.00,Wunderground v.1.15,2013-04-04 13:40:00,
2013-04-04 08:44:00,40.0,26.0,30.21,SSW,201,5.0,7.0,57,0.00,,,0.00,Wunderground v.1.15,2013-04-04 13:44:00,
2013-04-04 08:48:00,40.2,26.2,30.21,South,179,5.0,7.0,57,0.00,,,0.00,Wunderground v.1.15,2013-04-04 13:48:00,
2013-04-04 08:50:00,40.3,26.3,30.21,WSW,238,5.0,7.0,57,0.00,,,0.00,Wunderground v.1.15,2013-04-04 13:50:00,
2013-04-04 08:52:00,40.6,26.5,30.20,WSW,245,5.0,7.0,57,0.00,,,0.00,Wunderground v.1.15,2013-04-04 13:52:00,
2013-04-04 08:56:00,40.7,26.6,30.20,South,188,5.0,8.0,57,0.00,,,0.00,Wunderground v.1.15,2013-04-04 13:56:00,
2013-04-04 09:00:00,41.0,26.9,30.20,SSE,148,5.0,7.0,57,0.00,,,0.00,Wunderground v.1.15,2013-04-04 14:00:00,
2013-04-04 09:08:00,41.5,27.0,30.20,South,186,7.0,10.0,56,0.00,,,0.00,Wunderground v.1.15,2013-04-04 14:08:00,
2013-04-04 09:12:00,41.7,26.7,30.20,SW,226,7.0,11.0,55,0.00,,,0.00,Wunderground v.1.15,2013-04-04 14:12:00,
2013-04-04 09:14:00,41.9,27.3,30.20,West,274,6.0,11.0,56,0.00,,,0.00,Wunderground v.1.15,2013-04-04 14:14:00,
2013-04-04 09:16:00,42.1,27.1,30.19,SSW,211,6.0,11.0,55,0.00,,,0.00,Wunderground v.1.15,2013-04-04 14:16:00,
2013-04-04 09:22:00,42.8,26.8,30.19,SSE,149,6.0,7.0,53,0.00,,,0.00,Wunderground v.1.15,2013-04-04 14:22:00,
2013-04-04 09:24:00,43.2,26.7,30.19,WSW,245,6.0,8.0,52,0.00,,,0.00,Wunderground v.1.15,2013-04-04 14:24:00,
2013-04-04 09:30:00,43.7,26.3,30.19,SW,218,7.0,7.0,50,0.00,,,0.00,Wunderground v.1.15,2013-04-04 14:30:00,
2013-04-04 09:32:00,43.9,26.4,30.19,SSW,200,8.0,8.0,50,0.00,,,0.00,Wunderground v.1.15,2013-04-04 14:32:00,
2013-04-04 09:34:00,44.0,26.0,30.19,WSW,256,8.0,8.0,49,0.00,,,0.00,Wunderground v.1.15,2013-04-04 14:34:00,
2013-04-04 09:38:00,44.1,25.6,30.19,SSW,201,9.0,13.0,48,0.00,,,0.00,Wunderground v.1.15,2013-04-04 14:38:00,
2013-04-04 09:40:00,44.3,26.3,30.19,SW,214,9.0,11.0,49,0.00,,,0.00,Wunderground v.1.15,2013-04-04 14:40:00,
2013-04-04 09:42:00,44.2,25.7,30.19,WSW,243,10.0,11.0,48,0.00,,,0.00,Wunderground v.1.15,2013-04-04 14:42:00,
2013-04-04 09:48:00,44.7,26.7,30.18,WSW,256,10.0,11.0,49,0.00,,,0.00,Wunderground v.1.15,2013-04-04 14:48:00,
2013-04-04 09:50:00,44.7,27.2,30.18,SW,229,10.0,11.0,50,0.00,,,0.00,Wunderground v.1.15,2013-04-04 14:50:00,
2013-04-04 09:54:00,45.2,27.2,30.18,WSW,246,9.0,11.0,49,0.00,,,0.00,Wunderground v.1.15,2013-04-04 14:54:00,
2013-04-04 09:58:00,45.4,25.8,30.18,SW,236,10.0,11.0,46,0.00,,,0.00,Wunderground v.1.15,2013-04-04 14:58:00,
2013-04-04 10:00:00,45.5,25.4,30.18,SSW,212,11.0,11.0,45,0.00,,,0.00,Wunderground v.1.15,2013-04-04 15:00:00,
2013-04-04 10:04:00,45.7,26.6,30.17,SW,235,11.0,14.0,47,0.00,,,0.00,Wunderground v.1.15,2013-04-04 15:04:00,
2013-04-04 10:08:00,46.0,26.9,30.17,SW,221,10.0,17.0,47,0.00,,,0.00,Wunderground v.1.15,2013-04-04 15:08:00,
2013-04-04 10:10:00,45.9,25.2,30.17,WSW,245,10.0,11.0,44,0.00,,,0.00,Wunderground v.1.15,2013-04-04 15:10:00,
2013-04-04 10:12:00,45.9,26.3,30.17,SW,226,10.0,12.0,46,0.00,,,0.00,Wunderground v.1.15,2013-04-04 15:12:00,
2013-04-04 10:18:00,46.4,26.7,30.17,West,270,11.0,12.0,46,0.00,,,0.00,Wunderground v.1.15,2013-04-04 15:18:00,
2013-04-04 10:28:00,46.8,28.1,30.17,SW,224,10.0,11.0,48,0.00,,,0.00,Wunderground v.1.15,2013-04-04 15:28:00,
2013-04-04 10:32:00,47.2,26.4,30.17,WNW,290,9.0,9.0,44,0.00,,,0.00,Wunderground v.1.15,2013-04-04 15:32:00,
2013-04-04 10:38:00,47.4,26.0,30.17,WSW,239,9.0,14.0,43,0.00,,,0.00,Wunderground v.1.15,2013-04-04 15:38:00,
2013-04-04 10:40:00,47.3,25.9,30.17,SSW,212,10.0,10.0,43,0.00,,,0.00,Wunderground v.1.15,2013-04-04 15:40:00,
2013-04-04 10:42:00,47.4,26.0,30.17,SW,233,10.0,10.0,43,0.00,,,0.00,Wunderground v.1.15,2013-04-04 15:42:00,
2013-04-04 10:48:00,47.9,28.1,30.17,SW,224,9.0,11.0,46,0.00,,,0.00,Wunderground v.1.15,2013-04-04 15:48:00,
2013-04-04 10:50:00,48.0,26.0,30.16,WSW,252,9.0,9.0,42,0.00,,,0.00,Wunderground v.1.15,2013-04-04 15:50:00,
2013-04-04 10:52:00,48.0,27.1,30.16,SSW,203,9.0,9.0,44,0.00,,,0.00,Wunderground v.1.15,2013-04-04 15:52:00,
2013-04-04 10:54:00,48.3,27.9,30.16,WSW,248,9.0,10.0,45,0.00,,,0.00,Wunderground v.1.15,2013-04-04 15:54:00,
2013-04-04 11:00:00,48.7,27.7,30.16,WNW,290,9.0,10.0,44,0.00,,,0.00,Wunderground v.1.15,2013-04-04 16:00:00,
2013-04-04 11:02:00,48.9,27.4,30.16,WSW,250,9.0,11.0,43,0.00,,,0.00,Wunderground v.1.15,2013-04-04 16:02:00,
2013-04-04 11:04:00,49.0,27.5,30.16,WSW,245,9.0,11.0,43,0.00,,,0.00,Wunderground v.1.15,2013-04-04 16:04:00,
2013-04-04 11:06:00,49.3,27.7,30.16,WSW,238,9.0,16.0,43,0.00,,,0.00,Wunderground v.1.15,2013-04-04 16:06:00,
2013-04-04 11:12:00,49.3,26.0,30.16,SSW,201,9.0,12.0,40,0.00,,,0.00,Wunderground v.1.15,2013-04-04 16:12:00,
2013-04-04 11:18:00,49.3,26.6,30.15,SW,233,9.0,12.0,41,0.00,,,0.00,Wunderground v.1.15,2013-04-04 16:18:00,
2013-04-04 11:20:00,49.3,26.0,30.15,SW,214,10.0,11.0,40,0.00,,,0.00,Wunderground v.1.15,2013-04-04 16:20:00,
2013-04-04 11:22:00,49.4,27.2,30.15,SW,225,10.0,11.0,42,0.00,,,0.00,Wunderground v.1.15,2013-04-04 16:22:00,
2013-04-04 11:28:00,49.8,27.0,30.15,WSW,238,9.0,11.0,41,0.00,,,0.00,Wunderground v.1.15,2013-04-04 16:28:00,
2013-04-04 11:32:00,50.2,27.4,30.15,WSW,240,8.0,9.0,41,0.00,,,0.00,Wunderground v.1.15,2013-04-04 16:32:00,
2013-04-04 11:38:00,50.5,27.7,30.15,WSW,252,9.0,11.0,41,0.00,,,0.00,Wunderground v.1.15,2013-04-04 16:38:00,
2013-04-04 11:40:00,50.5,27.0,30.15,WNW,282,9.0,9.0,40,0.00,,,0.00,Wunderground v.1.15,2013-04-04 16:40:00,
2013-04-04 11:48:00,50.5,26.4,30.15,WNW,287,8.0,11.0,39,0.00,,,0.00,Wunderground v.1.15,2013-04-04 16:48:00,
2013-04-04 11:50:00,50.6,26.5,30.14,WSW,257,8.0,10.0,39,0.00,,,0.00,Wunderground v.1.15,2013-04-04 16:50:00,
2013-04-04 11:58:00,50.8,26.1,30.14,SW,226,9.0,12.0,38,0.00,,,0.00,Wunderground v.1.15,2013-04-04 16:58:00,
2013-04-04 12:00:00,50.8,27.3,30.14,SW,216,9.0,11.0,40,0.00,,,0.00,Wunderground v.1.15,2013-04-04 17:00:00,
2013-04-04 12:02:00,50.9,26.8,30.14,WSW,239,9.0,11.0,39,0.00,,,0.00,Wunderground v.1.15,2013-04-04 17:02:00,
2013-04-04 12:04:00,51.4,29.1,30.14,West,280,9.0,11.0,42,0.00,,,0.00,Wunderground v.1.15,2013-04-04 17:04:00,
2013-04-04 12:08:00,51.7,28.1,30.14,SW,231,8.0,11.0,40,0.00,,,0.00,Wunderground v.1.15,2013-04-04 17:08:00,
2013-04-04 12:10:00,51.6,27.4,30.14,SW,236,9.0,9.0,39,0.00,,,0.00,Wunderground v.1.15,2013-04-04 17:10:00,
2013-04-04 12:12:00,51.5,27.9,30.13,SSW,207,9.0,9.0,40,0.00,,,0.00,Wunderground v.1.15,2013-04-04 17:12:00,
2013-04-04 12:18:00,51.9,29.5,30.13,WSW,242,8.0,9.0,42,0.00,,,0.00,Wunderground v.1.15,2013-04-04 17:18:00,
2013-04-04 12:22:00,51.9,28.3,30.13,WNW,293,8.0,9.0,40,0.00,,,0.00,Wunderground v.1.15,2013-04-04 17:22:00,
2013-04-04 12:24:00,52.2,28.6,30.13,WNW,284,9.0,9.0,40,0.00,,,0.00,Wunderground v.1.15,2013-04-04 17:24:00,
2013-04-04 12:28:00,51.9,26.4,30.12,West,262,10.0,12.0,37,0.00,,,0.00,Wunderground v.1.15,2013-04-04 17:28:00,
2013-04-04 12:32:00,52.2,27.3,30.12,SW,217,9.0,9.0,38,0.00,,,0.00,Wunderground v.1.15,2013-04-04 17:32:00,
2013-04-04 12:34:00,52.4,28.1,30.12,WNW,294,9.0,9.0,39,0.00,,,0.00,Wunderground v.1.15,2013-04-04 17:34:00,
2013-04-04 12:38:00,52.4,27.5,30.11,WNW,289,8.0,10.0,38,0.00,,,0.00,Wunderground v.1.15,2013-04-04 17:38:00,
2013-04-04 12:40:00,52.6,28.3,30.11,West,273,8.0,10.0,39,0.00,,,0.00,Wunderground v.1.15,2013-04-04 17:40:00,
2013-04-04 12:44:00,52.6,27.7,30.12,WSW,240,8.0,10.0,38,0.00,,,0.00,Wunderground v.1.15,2013-04-04 17:44:00,
2013-04-04 12:48:00,52.5,28.2,30.11,WNW,282,9.0,10.0,39,0.00,,,0.00,Wunderground v.1.15,2013-04-04 17:48:00,
2013-04-04 12:58:00,52.7,25.8,30.11,WNW,288,9.0,12.0,35,0.00,,,0.00,Wunderground v.1.15,2013-04-04 17:58:00,
2013-04-04 13:04:00,53.2,28.9,30.11,West,275,8.0,9.0,39,0.00,,,0.00,Wunderground v.1.15,2013-04-04 18:04:00,
2013-04-04 13:06:00,53.2,26.9,30.11,SW,236,7.0,9.0,36,0.00,,,0.00,Wunderground v.1.15,2013-04-04 18:06:00,
2013-04-04 13:08:00,53.2,26.9,30.11,WNW,284,7.0,11.0,36,0.00,,,0.00,Wunderground v.1.15,2013-04-04 18:08:00,
2013-04-04 13:10:00,53.0,26.7,30.10,WSW,256,8.0,9.0,36,0.00,,,0.00,Wunderground v.1.15,2013-04-04 18:10:00,
2013-04-04 13:14:00,53.2,28.2,30.10,WNW,302,8.0,9.0,38,0.00,,,0.00,Wunderground v.1.15,2013-04-04 18:14:00,
2013-04-04 13:20:00,53.5,28.5,30.10,SW,214,7.0,7.0,38,0.00,,,0.00,Wunderground v.1.15,2013-04-04 18:20:00,
2013-04-04 13:22:00,53.6,28.6,30.09,WSW,240,7.0,8.0,38,0.00,,,0.00,Wunderground v.1.15,2013-04-04 18:22:00,
2013-04-04 13:28:00,53.9,28.8,30.09,SW,214,7.0,12.0,38,0.00,,,0.00,Wunderground v.1.15,2013-04-04 18:28:00,
2013-04-04 13:30:00,53.9,28.8,30.09,WSW,250,8.0,8.0,38,0.00,,,0.00,Wunderground v.1.15,2013-04-04 18:30:00,
2013-04-04 13:38:00,54.4,28.6,30.09,SW,218,8.0,14.0,37,0.00,,,0.00,Wunderground v.1.15,2013-04-04 18:38:00,
2013-04-04 13:40:00,54.5,30.0,30.09,SW,231,9.0,9.0,39,0.00,,,0.00,Wunderground v.1.15,2013-04-04 18:40:00,
2013-04-04 13:46:00,54.8,30.3,30.08,West,272,8.0,9.0,39,0.00,,,0.00,Wunderground v.1.15,2013-04-04 18:46:00,
2013-04-04 13:48:00,54.9,29.7,30.08,West,273,8.0,9.0,38,0.00,,,0.00,Wunderground v.1.15,2013-04-04 18:48:00,
2013-04-04 13:52:00,54.7,28.9,30.08,West,278,8.0,14.0,37,0.00,,,0.00,Wunderground v.1.15,2013-04-04 18:52:00,
2013-04-04 13:56:00,54.7,28.2,30.08,WNW,297,8.0,14.0,36,0.00,,,0.00,Wunderground v.1.15,2013-04-04 18:56:00,
2013-04-04 13:58:00,54.8,29.7,30.07,WNW,293,8.0,14.0,38,0.00,,,0.00,Wunderground v.1.15,2013-04-04 18:58:00,
2013-04-04 14:00:00,55.0,29.2,30.07,West,274,8.0,8.0,37,0.00,,,0.00,Wunderground v.1.15,2013-04-04 19:00:00,
2013-04-04 14:02:00,54.9,30.4,30.07,SSW,211,7.0,8.0,39,0.00,,,0.00,Wunderground v.1.15,2013-04-04 19:02:00,
2013-04-04 14:04:00,55.2,29.4,30.07,SW,229,7.0,9.0,37,0.00,,,0.00,Wunderground v.1.15,2013-04-04 19:04:00,
2013-04-04 14:08:00,55.3,29.4,30.07,West,264,7.0,9.0,37,0.00,,,0.00,Wunderground v.1.15,2013-04-04 19:08:00,
2013-04-04 14:10:00,55.7,30.5,30.07,West,280,7.0,8.0,38,0.00,,,0.00,Wunderground v.1.15,2013-04-04 19:10:00,
2013-04-04 14:12:00,55.7,29.8,30.07,NW,308,7.0,8.0,37,0.00,,,0.00,Wunderground v.1.15,2013-04-04 19:12:00,
2013-04-04 14:16:00,55.8,31.2,30.07,WNW,298,7.0,11.0,39,0.00,,,0.00,Wunderground v.1.15,2013-04-04 19:16:00,
2013-04-04 14:18:00,56.1,30.2,30.07,WSW,245,7.0,11.0,37,0.00,,,0.00,Wunderground v.1.15,2013-04-04 19:18:00,
2013-04-04 14:20:00,56.1,30.8,30.07,West,280,7.0,7.0,38,0.00,,,0.00,Wunderground v.1.15,2013-04-04 19:20:00,
2013-04-04 14:26:00,55.9,30.6,30.07,WNW,286,8.0,11.0,38,0.00,,,0.00,Wunderground v.1.15,2013-04-04 19:26:00,
2013-04-04 14:28:00,55.8,29.9,30.07,WNW,291,8.0,11.0,37,0.00,,,0.00,Wunderground v.1.15,2013-04-04 19:28:00,
2013-04-04 14:34:00,56.1,32.1,30.06,SW,236,8.0,11.0,40,0.00,,,0.00,Wunderground v.1.15,2013-04-04 19:34:00,
2013-04-04 14:38:00,56.1,30.2,30.06,WNW,290,8.0,11.0,37,0.00,,,0.00,Wunderground v.1.15,2013-04-04 19:38:00,
2013-04-04 14:40:00,56.0,30.7,30.06,WNW,297,9.0,9.0,38,0.00,,,0.00,Wunderground v.1.15,2013-04-04 19:40:00,
2013-04-04 14:44:00,56.1,30.8,30.06,WSW,245,9.0,9.0,38,0.00,,,0.00,Wunderground v.1.15,2013-04-04 19:44:00,
2013-04-04 14:48:00,56.0,31.4,30.05,WNW,295,7.0,9.0,39,0.00,,,0.00,Wunderground v.1.15,2013-04-04 19:48:00,
2013-04-04 14:50:00,56.2,31.5,30.06,WNW,301,6.0,13.0,39,0.00,,,0.00,Wunderground v.1.15,2013-04-04 19:50:00,
2013-04-04 14:54:00,56.6,31.9,30.06,WSW,252,6.0,13.0,39,0.00,,,0.00,Wunderground v.1.15,2013-04-04 19:54:00,
2013-04-04 14:58:00,57.0,31.0,30.05,West,269,7.0,13.0,37,0.00,,,0.00,Wunderground v.1.15,2013-04-04 19:58:00,
2013-04-04 15:00:00,57.0,30.3,30.05,WSW,247,8.0,8.0,36,0.00,,,0.00,Wunderground v.1.15,2013-04-04 20:00:00,
2013-04-04 15:08:00,56.6,31.3,30.05,West,274,8.0,13.0,38,0.00,,,0.00,Wunderground v.1.15,2013-04-04 20:08:00,
2013-04-04 15:10:00,56.7,31.4,30.05,WSW,253,8.0,8.0,38,0.00,,,0.00,Wunderground v.1.15,2013-04-04 20:10:00,
2013-04-04 15:12:00,56.8,32.7,30.04,WSW,247,7.0,8.0,40,0.00,,,0.00,Wunderground v.1.15,2013-04-04 20:12:00,
2013-04-04 15:14:00,57.1,32.4,30.04,SW,214,6.0,8.0,39,0.00,,,0.00,Wunderground v.1.15,2013-04-04 20:14:00,
2013-04-04 15:18:00,57.5,32.7,30.04,SW,217,6.0,10.0,39,0.00,,,0.00,Wunderground v.1.15,2013-04-04 20:18:00,
2013-04-04 15:20:00,57.7,31.6,30.04,WNW,293,7.0,14.0,37,0.00,,,0.00,Wunderground v.1.15,2013-04-04 20:20:00,
2013-04-04 15:26:00,57.4,31.3,30.04,West,271,8.0,14.0,37,0.00,,,0.00,Wunderground v.1.15,2013-04-04 20:26:00,
2013-04-04 15:28:00,57.6,32.2,30.03,West,267,8.0,14.0,38,0.00,,,0.00,Wunderground v.1.15,2013-04-04 20:28:00,
2013-04-04 15:32:00,57.6,32.2,30.03,West,278,7.0,11.0,38,0.00,,,0.00,Wunderground v.1.15,2013-04-04 20:32:00,
2013-04-04 15:36:00,57.5,30.7,30.03,South,180,7.0,11.0,36,0.00,,,0.00,Wunderground v.1.15,2013-04-04 20:36:00,
2013-04-04 15:38:00,57.4,31.3,30.03,SW,221,7.0,11.0,37,0.00,,,0.00,Wunderground v.1.15,2013-04-04 20:38:00,
2013-04-04 15:42:00,58.1,32.6,30.03,WSW,250,6.0,8.0,38,0.00,,,0.00,Wunderground v.1.15,2013-04-04 20:42:00,
2013-04-04 15:44:00,58.3,33.4,30.03,West,277,7.0,10.0,39,0.00,,,0.00,Wunderground v.1.15,2013-04-04 20:44:00,
2013-04-04 15:46:00,58.2,32.0,30.03,WSW,258,7.0,10.0,37,0.00,,,0.00,Wunderground v.1.15,2013-04-04 20:46:00,
2013-04-04 15:50:00,58.1,31.9,30.02,SW,222,7.0,7.0,37,0.00,,,0.00,Wunderground v.1.15,2013-04-04 20:50:00,
2013-04-04 15:56:00,58.4,32.9,30.02,WSW,257,6.0,10.0,38,0.00,,,0.00,Wunderground v.1.15,2013-04-04 20:56:00,
2013-04-04 15:58:00,58.2,32.0,30.02,SW,229,6.0,12.0,37,0.00,,,0.00,Wunderground v.1.15,2013-04-04 20:58:00,
2013-04-04 16:00:00,58.1,31.9,30.02,West,281,7.0,7.0,37,0.00,,,0.00,Wunderground v.1.15,2013-04-04 21:00:00,
2013-04-04 16:04:00,58.1,31.9,30.02,West,279,8.0,9.0,37,0.00,,,0.00,Wunderground v.1.15,2013-04-04 21:04:00,
2013-04-04 16:06:00,58.2,32.7,30.02,West,281,7.0,9.0,38,0.00,,,0.00,Wunderground v.1.15,2013-04-04 21:06:00,
2013-04-04 16:12:00,58.3,32.8,30.02,West,280,7.0,10.0,38,0.00,,,0.00,Wunderground v.1.15,2013-04-04 21:12:00,
2013-04-04 16:14:00,58.2,32.0,30.02,WNW,284,7.0,11.0,37,0.00,,,0.00,Wunderground v.1.15,2013-04-04 21:14:00,
2013-04-04 16:20:00,58.3,32.8,30.02,WSW,255,7.0,8.0,38,0.00,,,0.00,Wunderground v.1.15,2013-04-04 21:20:00,
2013-04-04 16:22:00,58.4,32.9,30.01,SW,228,7.0,10.0,38,0.00,,,0.00,Wunderground v.1.15,2013-04-04 21:22:00,
2013-04-04 16:26:00,58.5,32.3,30.02,SW,224,8.0,10.0,37,0.00,,,0.00,Wunderground v.1.15,2013-04-04 21:26:00,
2013-04-04 16:28:00,58.4,32.2,30.01,SW,217,8.0,10.0,37,0.00,,,0.00,Wunderground v.1.15,2013-04-04 21:28:00,
2013-04-04 16:32:00,58.7,33.8,30.01,West,280,8.0,10.0,39,0.00,,,0.00,Wunderground v.1.15,2013-04-04 21:32:00,
2013-04-04 16:34:00,58.8,33.9,30.01,West,280,8.0,10.0,39,0.00,,,0.00,Wunderground v.1.15,2013-04-04 21:34:00,
2013-04-04 16:38:00,58.7,32.5,30.01,WNW,300,9.0,15.0,37,0.00,,,0.00,Wunderground v.1.15,2013-04-04 21:38:00,
2013-04-04 16:40:00,58.6,33.0,30.01,WNW,298,9.0,9.0,38,0.00,,,0.00,Wunderground v.1.15,2013-04-04 21:40:00,
2013-04-04 16:46:00,58.6,33.0,30.01,NW,315,9.0,10.0,38,0.00,,,0.00,Wunderground v.1.15,2013-04-04 21:46:00,
2013-04-04 16:48:00,58.6,33.7,30.01,SW,217,9.0,10.0,39,0.00,,,0.00,Wunderground v.1.15,2013-04-04 21:48:00,
2013-04-04 16:50:00,58.8,34.5,30.01,WSW,245,8.0,11.0,40,0.00,,,0.00,Wunderground v.1.15,2013-04-04 21:50:00,
2013-04-04 16:52:00,58.8,32.6,30.01,West,266,9.0,11.0,37,0.00,,,0.00,Wunderground v.1.15,2013-04-04 21:52:00,
2013-04-04 16:56:00,58.6,33.7,30.01,West,268,8.0,11.0,39,0.00,,,0.00,Wunderground v.1.15,2013-04-04 21:56:00,
2013-04-04 16:58:00,58.6,33.0,30.01,NW,304,8.0,13.0,38,0.00,,,0.00,Wunderground v.1.15,2013-04-04 21:58:00,
2013-04-04 17:00:00,58.7,33.1,30.01,WNW,293,8.0,8.0,38,0.00,,,0.00,Wunderground v.1.15,2013-04-04 22:00:00,
2013-04-04 17:02:00,58.8,33.2,30.01,West,275,8.0,8.0,38,0.00,,,0.00,Wunderground v.1.15,2013-04-04 22:02:00,
2013-04-04 17:08:00,59.0,32.7,30.01,SW,218,8.0,8.0,37,0.00,,,0.00,Wunderground v.1.15,2013-04-04 22:08:00,
2013-04-04 17:10:00,59.0,33.4,30.00,SW,229,8.0,13.0,38,0.00,,,0.00,Wunderground v.1.15,2013-04-04 22:10:00,
2013-04-04 17:14:00,58.9,32.7,30.01,WSW,245,9.0,13.0,37,0.00,,,0.00,Wunderground v.1.15,2013-04-04 22:14:00,
2013-04-04 17:18:00,59.0,32.7,30.01,WSW,248,7.0,13.0,37,0.00,,,0.00,Wunderground v.1.15,2013-04-04 22:18:00,
2013-04-04 17:20:00,59.0,33.4,30.00,West,264,8.0,8.0,38,0.00,,,0.00,Wunderground v.1.15,2013-04-04 22:20:00,
2013-04-04 17:22:00,59.1,34.1,30.00,SW,218,7.0,9.0,39,0.00,,,0.00,Wunderground v.1.15,2013-04-04 22:22:00,
2013-04-04 17:26:00,59.0,33.4,30.01,SW,233,8.0,9.0,38,0.00,,,0.00,Wunderground v.1.15,2013-04-04 22:26:00,
2013-04-04 17:28:00,58.9,33.3,30.01,WNW,284,8.0,9.0,38,0.00,,,0.00,Wunderground v.1.15,2013-04-04 22:28:00,
2013-04-04 17:30:00,58.8,32.6,30.01,WSW,248,8.0,8.0,37,0.00,,,0.00,Wunderground v.1.15,2013-04-04 22:30:00,
2013-04-04 17:32:00,58.9,32.7,30.01,SW,224,8.0,8.0,37,0.00,,,0.00,Wunderground v.1.15,2013-04-04 22:32:00,
2013-04-04 17:34:00,58.8,32.6,30.01,SSW,212,8.0,9.0,37,0.00,,,0.00,Wunderground v.1.15,2013-04-04 22:34:00,
2013-04-04 17:36:00,58.8,33.2,30.01,WNW,286,8.0,9.0,38,0.00,,,0.00,Wunderground v.1.15,2013-04-04 22:36:00,
2013-04-04 17:38:00,58.8,33.2,30.01,WSW,243,8.0,9.0,38,0.00,,,0.00,Wunderground v.1.15,2013-04-04 22:38:00,
2013-04-04 17:40:00,58.7,33.1,30.01,WNW,294,8.0,10.0,38,0.00,,,0.00,Wunderground v.1.15,2013-04-04 22:40:00,
2013-04-04 17:46:00,58.4,33.5,30.01,West,275,7.0,10.0,39,0.00,,,0.00,Wunderground v.1.15,2013-04-04 22:46:00,
2013-04-04 17:48:00,58.2,33.3,30.01,West,264,7.0,10.0,39,0.00,,,0.00,Wunderground v.1.15,2013-04-04 22:48:00,
2013-04-04 17:50:00,58.1,33.9,30.01,West,271,7.0,7.0,40,0.00,,,0.00,Wunderground v.1.15,2013-04-04 22:50:00,
2013-04-04 17:52:00,58.0,33.8,30.01,West,280,7.0,7.0,40,0.00,,,0.00,Wunderground v.1.15,2013-04-04 22:52:00,
2013-04-04 17:54:00,57.9,33.7,30.01,West,276,7.0,7.0,40,0.00,,,0.00,Wunderground v.1.15,2013-04-04 22:54:00,
2013-04-04 17:56:00,57.8,33.6,30.01,West,278,7.0,7.0,40,0.00,,,0.00,Wunderground v.1.15,2013-04-04 22:56:00,
2013-04-04 18:02:00,57.7,34.1,30.01,NW,304,8.0,8.0,41,0.00,,,0.00,Wunderground v.1.15,2013-04-04 23:02:00,
2013-04-04 18:04:00,57.7,34.1,30.01,West,277,8.0,8.0,41,0.00,,,0.00,Wunderground v.1.15,2013-04-04 23:04:00,
2013-04-04 18:08:00,58.3,34.7,30.01,West,271,8.0,8.0,41,0.00,,,0.00,Wunderground v.1.15,2013-04-04 23:08:00,
2013-04-04 18:10:00,58.6,35.0,30.01,West,278,7.0,8.0,41,0.00,,,0.00,Wunderground v.1.15,2013-04-04 23:10:00,
2013-04-04 18:14:00,58.7,34.4,30.01,SSW,205,7.0,8.0,40,0.00,,,0.00,Wunderground v.1.15,2013-04-04 23:14:00,
2013-04-04 18:18:00,58.6,34.3,30.01,SW,233,7.0,8.0,40,0.00,,,0.00,Wunderground v.1.15,2013-04-04 23:18:00,
2013-04-04 18:22:00,58.4,34.2,30.01,WNW,296,8.0,8.0,40,0.00,,,0.00,Wunderground v.1.15,2013-04-04 23:22:00,
2013-04-04 18:24:00,58.2,34.0,30.00,West,268,8.0,8.0,40,0.00,,,0.00,Wunderground v.1.15,2013-04-04 23:24:00,
2013-04-04 18:28:00,57.7,34.1,30.00,West,276,8.0,8.0,41,0.00,,,0.00,Wunderground v.1.15,2013-04-04 23:28:00,
2013-04-04 18:30:00,57.4,35.1,30.00,WNW,293,7.0,7.0,43,0.00,,,0.00,Wunderground v.1.15,2013-04-04 23:30:00,
2013-04-04 18:32:00,57.2,35.5,30.00,WSW,250,6.0,7.0,44,0.00,,,0.00,Wunderground v.1.15,2013-04-04 23:32:00,
2013-04-04 18:36:00,57.0,35.3,30.00,SW,221,6.0,8.0,44,0.00,,,0.00,Wunderground v.1.15,2013-04-04 23:36:00,
2013-04-04 18:38:00,57.0,34.7,30.00,WSW,243,6.0,8.0,43,0.00,,,0.00,Wunderground v.1.15,2013-04-04 23:38:00,
2013-04-04 18:40:00,57.0,35.3,30.00,SW,217,6.0,6.0,44,0.00,,,0.00,Wunderground v.1.15,2013-04-04 23:40:00,
2013-04-04 18:42:00,57.0,35.3,30.00,WSW,245,6.0,7.0,44,0.00,,,0.00,Wunderground v.1.15,2013-04-04 23:42:00,
2013-04-04 18:48:00,56.7,35.6,30.00,WNW,287,6.0,7.0,45,0.00,,,0.00,Wunderground v.1.15,2013-04-04 23:48:00,
2013-04-04 18:50:00,56.6,36.0,30.00,WSW,240,6.0,6.0,46,0.00,,,0.00,Wunderground v.1.15,2013-04-04 23:50:00,
2013-04-04 18:52:00,56.5,36.5,30.00,SSW,211,6.0,7.0,47,0.00,,,0.00,Wunderground v.1.15,2013-04-04 23:52:00,
2013-04-04 18:54:00,56.4,36.9,30.00,WSW,255,5.0,7.0,48,0.00,,,0.00,Wunderground v.1.15,2013-04-04 23:54:00,
2013-04-04 18:56:00,56.2,36.8,30.00,WSW,248,5.0,7.0,48,0.00,,,0.00,Wunderground v.1.15,2013-04-04 23:56:00,
2013-04-04 18:58:00,56.0,36.6,30.00,West,278,5.0,7.0,48,0.00,,,0.00,Wunderground v.1.15,2013-04-04 23:58:00,
2013-04-04 19:02:00,55.9,36.5,30.00,WSW,246,4.0,7.0,48,0.00,,,0.00,Wunderground v.1.15,2013-04-05 00:02:00,
2013-04-04 19:04:00,55.9,36.5,29.99,WNW,283,4.0,7.0,48,0.00,,,0.00,Wunderground v.1.15,2013-04-05 00:04:00,
2013-04-04 19:08:00,55.7,36.8,29.99,West,259,4.0,7.0,49,0.00,,,0.00,Wunderground v.1.15,2013-04-05 00:08:00,
2013-04-04 19:12:00,55.6,36.7,29.99,SW,225,4.0,7.0,49,0.00,,,0.00,Wunderground v.1.15,2013-04-05 00:12:00,
2013-04-04 19:16:00,55.3,37.0,29.99,West,269,4.0,7.0,50,0.00,,,0.00,Wunderground v.1.15,2013-04-05 00:16:00,
2013-04-04 19:18:00,55.1,37.3,29.99,West,266,4.0,7.0,51,0.00,,,0.00,Wunderground v.1.15,2013-04-05 00:18:00,
2013-04-04 19:22:00,54.8,37.0,29.99,SW,218,4.0,7.0,51,0.00,,,0.00,Wunderground v.1.15,2013-04-05 00:22:00,
2013-04-04 19:24:00,54.6,36.8,29.99,SW,231,4.0,7.0,51,0.00,,,0.00,Wunderground v.1.15,2013-04-05 00:24:00,
2013-04-04 19:28:00,54.2,37.4,29.99,WSW,238,4.0,7.0,53,0.00,,,0.00,Wunderground v.1.15,2013-04-05 00:28:00,
2013-04-04 19:30:00,54.0,37.2,29.99,WSW,257,4.0,7.0,53,0.00,,,0.00,Wunderground v.1.15,2013-04-05 00:30:00,
2013-04-04 19:32:00,53.8,37.1,29.99,SW,224,4.0,7.0,53,0.00,,,0.00,Wunderground v.1.15,2013-04-05 00:32:00,
2013-04-04 19:38:00,53.2,37.0,29.99,SW,235,4.0,7.0,54,0.00,,,0.00,Wunderground v.1.15,2013-04-05 00:38:00,
2013-04-04 19:40:00,53.0,37.3,29.99,West,266,4.0,4.0,55,0.00,,,0.00,Wunderground v.1.15,2013-04-05 00:40:00,
2013-04-04 19:42:00,52.9,37.2,29.99,WSW,237,4.0,7.0,55,0.00,,,0.00,Wunderground v.1.15,2013-04-05 00:42:00,
2013-04-04 19:44:00,52.8,37.1,29.99,West,275,4.0,7.0,55,0.00,,,0.00,Wunderground v.1.15,2013-04-05 00:44:00,
2013-04-04 19:46:00,52.7,37.0,29.99,WNW,284,3.0,7.0,55,0.00,,,0.00,Wunderground v.1.15,2013-04-05 00:46:00,
2013-04-04 19:50:00,52.6,36.9,29.99,WNW,287,3.0,7.0,55,0.00,,,0.00,Wunderground v.1.15,2013-04-05 00:50:00,
2013-04-04 19:54:00,52.4,36.7,29.99,SW,226,3.0,7.0,55,0.00,,,0.00,Wunderground v.1.15,2013-04-05 00:54:00,
2013-04-04 19:58:00,52.1,36.4,29.99,WSW,240,3.0,7.0,55,0.00,,,0.00,Wunderground v.1.15,2013-04-05 00:58:00,
2013-04-04 20:00:00,52.1,36.4,29.99,WSW,240,3.0,7.0,55,0.00,,,0.00,Wunderground v.1.15,2013-04-05 01:00:00,
2013-04-04 20:02:00,52.1,36.4,29.99,WNW,300,3.0,7.0,55,0.00,,,0.00,Wunderground v.1.15,2013-04-05 01:02:00,
2013-04-04 20:06:00,52.2,36.5,29.99,WSW,246,3.0,7.0,55,0.00,,,0.00,Wunderground v.1.15,2013-04-05 01:06:00,
2013-04-04 20:08:00,52.2,36.5,29.99,SW,218,3.0,7.0,55,0.00,,,0.00,Wunderground v.1.15,2013-04-05 01:08:00,
2013-04-04 20:12:00,52.1,36.4,29.99,WSW,255,3.0,7.0,55,0.00,,,0.00,Wunderground v.1.15,2013-04-05 01:12:00,
2013-04-04 20:18:00,51.6,36.4,30.00,WSW,245,3.0,7.0,56,0.00,,,0.00,Wunderground v.1.15,2013-04-05 01:18:00,
2013-04-04 20:20:00,51.4,36.7,30.00,WSW,256,3.0,7.0,57,0.00,,,0.00,Wunderground v.1.15,2013-04-05 01:20:00,
2013-04-04 20:26:00,50.1,36.7,30.00,NW,310,4.0,7.0,60,0.00,,,0.00,Wunderground v.1.15,2013-04-05 01:26:00,
2013-04-04 20:28:00,49.5,36.6,30.00,West,281,3.0,7.0,61,0.00,,,0.00,Wunderground v.1.15,2013-04-05 01:28:00,
2013-04-04 20:32:00,49.1,36.6,30.00,WNW,290,3.0,7.0,62,0.00,,,0.00,Wunderground v.1.15,2013-04-05 01:32:00,
2013-04-04 20:36:00,49.1,36.6,30.00,West,281,2.0,7.0,62,0.00,,,0.00,Wunderground v.1.15,2013-04-05 01:36:00,
2013-04-04 20:38:00,49.3,36.4,30.00,WNW,285,2.0,7.0,61,0.00,,,0.00,Wunderground v.1.15,2013-04-05 01:38:00,
2013-04-04 20:42:00,49.4,36.5,30.00,WNW,287,2.0,7.0,61,0.00,,,0.00,Wunderground v.1.15,2013-04-05 01:42:00,
2013-04-04 20:48:00,49.6,36.3,30.00,WNW,285,2.0,7.0,60,0.00,,,0.00,Wunderground v.1.15,2013-04-05 01:48:00,
2013-04-04 20:50:00,49.7,36.4,30.00,WNW,302,2.0,7.0,60,0.00,,,0.00,Wunderground v.1.15,2013-04-05 01:50:00,
2013-04-04 20:52:00,49.7,36.4,30.00,WNW,290,2.0,7.0,60,0.00,,,0.00,Wunderground v.1.15,2013-04-05 01:52:00,
2013-04-04 20:58:00,49.2,36.3,30.01,WNW,300,3.0,7.0,61,0.00,,,0.00,Wunderground v.1.15,2013-04-05 01:58:00,
2013-04-04 21:00:00,49.1,36.2,30.01,WNW,301,3.0,3.0,61,0.00,,,0.00,Wunderground v.1.15,2013-04-05 02:00:00,
2013-04-04 21:08:00,49.2,36.7,30.01,WNW,301,2.0,7.0,62,0.00,,,0.00,Wunderground v.1.15,2013-04-05 02:08:00,
2013-04-04 21:10:00,49.3,36.8,30.01,WNW,302,3.0,7.0,62,0.00,,,0.00,Wunderground v.1.15,2013-04-05 02:10:00,
2013-04-04 21:14:00,49.5,36.6,30.01,WNW,297,3.0,7.0,61,0.00,,,0.00,Wunderground v.1.15,2013-04-05 02:14:00,
2013-04-04 21:18:00,49.5,37.0,30.01,WNW,302,3.0,7.0,62,0.00,,,0.00,Wunderground v.1.15,2013-04-05 02:18:00,
2013-04-04 21:28:00,49.6,37.1,30.01,WNW,295,4.0,7.0,62,0.00,,,0.00,Wunderground v.1.15,2013-04-05 02:28:00,
2013-04-04 21:30:00,49.5,37.4,30.01,WNW,300,4.0,7.0,63,0.00,,,0.00,Wunderground v.1.15,2013-04-05 02:30:00,
2013-04-04 21:32:00,49.3,37.2,30.01,WNW,302,4.0,7.0,63,0.00,,,0.00,Wunderground v.1.15,2013-04-05 02:32:00,
2013-04-04 21:36:00,48.9,37.3,30.01,WNW,302,4.0,7.0,64,0.00,,,0.00,Wunderground v.1.15,2013-04-05 02:36:00,
2013-04-04 21:42:00,48.4,37.2,30.01,NW,305,4.0,7.0,65,0.00,,,0.00,Wunderground v.1.15,2013-04-05 02:42:00,
2013-04-04 21:48:00,48.1,37.7,30.01,NW,311,5.0,7.0,67,0.00,,,0.00,Wunderground v.1.15,2013-04-05 02:48:00,
2013-04-04 21:50:00,48.0,37.6,30.01,WNW,296,5.0,7.0,67,0.00,,,0.00,Wunderground v.1.15,2013-04-05 02:50:00,
2013-04-04 21:52:00,47.9,37.8,30.02,NW,305,5.0,7.0,68,0.00,,,0.00,Wunderground v.1.15,2013-04-05 02:52:00,
2013-04-04 21:54:00,47.6,37.6,30.02,WNW,300,5.0,7.0,68,0.00,,,0.00,Wunderground v.1.15,2013-04-05 02:54:00,
2013-04-04 21:58:00,47.2,37.9,30.02,NW,307,5.0,7.0,70,0.00,,,0.00,Wunderground v.1.15,2013-04-05 02:58:00,
2013-04-04 22:00:00,47.1,37.8,30.02,WNW,303,5.0,7.0,70,0.00,,,0.00,Wunderground v.1.15,2013-04-05 03:00:00,
2013-04-04 22:08:00,46.3,37.8,30.02,NW,319,5.0,7.0,72,0.00,,,0.00,Wunderground v.1.15,2013-04-05 03:08:00,
2013-04-04 22:10:00,46.1,37.6,30.02,NW,319,5.0,7.0,72,0.00,,,0.00,Wunderground v.1.15,2013-04-05 03:10:00,
2013-04-04 22:14:00,45.6,37.8,30.02,NNW,334,5.0,7.0,74,0.00,,,0.00,Wunderground v.1.15,2013-04-05 03:14:00,
2013-04-04 22:16:00,45.5,37.7,30.02,NNW,328,6.0,7.0,74,0.00,,,0.00,Wunderground v.1.15,2013-04-05 03:16:00,
2013-04-04 22:18:00,45.3,37.8,30.02,NNW,332,6.0,7.0,75,0.00,,,0.00,Wunderground v.1.15,2013-04-05 03:18:00,
2013-04-04 22:20:00,45.3,37.8,30.02,NNW,328,6.0,6.0,75,0.00,,,0.00,Wunderground v.1.15,2013-04-05 03:20:00,
2013-04-04 22:24:00,45.1,38.0,30.03,NNW,332,5.0,7.0,76,0.00,,,0.00,Wunderground v.1.15,2013-04-05 03:24:00,
2013-04-04 22:26:00,44.9,37.8,30.03,NNW,328,5.0,7.0,76,0.00,,,0.00,Wunderground v.1.15,2013-04-05 03:26:00,
2013-04-04 22:28:00,44.9,38.1,30.02,NW,326,5.0,7.0,77,0.00,,,0.00,Wunderground v.1.15,2013-04-05 03:28:00,
2013-04-04 22:30:00,44.9,38.1,30.02,NW,325,5.0,7.0,77,0.00,,,0.00,Wunderground v.1.15,2013-04-05 03:30:00,
2013-04-04 22:34:00,44.6,37.8,30.02,NW,316,5.0,7.0,77,0.00,,,0.00,Wunderground v.1.15,2013-04-05 03:34:00,
2013-04-04 22:38:00,44.6,37.8,30.02,NW,323,4.0,7.0,77,0.00,,,0.00,Wunderground v.1.15,2013-04-05 03:38:00,
2013-04-04 22:40:00,44.5,37.7,30.02,NW,326,4.0,7.0,77,0.00,,,0.00,Wunderground v.1.15,2013-04-05 03:40:00,
2013-04-04 22:44:00,44.1,37.3,30.02,NW,323,4.0,7.0,77,0.00,,,0.00,Wunderground v.1.15,2013-04-05 03:44:00,
2013-04-04 22:50:00,44.1,37.7,30.03,NW,321,5.0,7.0,78,0.00,,,0.00,Wunderground v.1.15,2013-04-05 03:50:00,
2013-04-04 22:52:00,44.1,37.7,30.03,NW,323,5.0,7.0,78,0.00,,,0.00,Wunderground v.1.15,2013-04-05 03:52:00,
2013-04-04 22:54:00,44.0,37.6,30.03,NW,319,5.0,7.0,78,0.00,,,0.00,Wunderground v.1.15,2013-04-05 03:54:00,
2013-04-04 22:56:00,43.9,37.2,30.03,NW,326,5.0,7.0,77,0.00,,,0.00,Wunderground v.1.15,2013-04-05 03:56:00,
2013-04-04 22:58:00,43.6,36.9,30.02,NNW,328,5.0,7.0,77,0.00,,,0.00,Wunderground v.1.15,2013-04-05 03:58:00,
2013-04-04 23:00:00,43.4,36.7,30.03,NNW,328,5.0,7.0,77,0.00,,,0.00,Wunderground v.1.15,2013-04-05 04:00:00,
2013-04-04 23:02:00,43.4,37.0,30.03,NW,321,6.0,9.0,78,0.00,,,0.00,Wunderground v.1.15,2013-04-05 04:02:00,
2013-04-04 23:04:00,43.5,37.1,30.03,NW,316,6.0,9.0,78,0.00,,,0.00,Wunderground v.1.15,2013-04-05 04:04:00,
2013-04-04 23:08:00,43.8,37.1,30.03,NNW,332,7.0,9.0,77,0.00,,,0.00,Wunderground v.1.15,2013-04-05 04:08:00,
2013-04-04 23:10:00,43.8,37.1,30.03,NNW,328,7.0,9.0,77,0.00,,,0.00,Wunderground v.1.15,2013-04-05 04:10:00,
2013-04-04 23:16:00,44.1,37.0,30.03,NNW,327,7.0,10.0,76,0.00,,,0.00,Wunderground v.1.15,2013-04-05 04:16:00,
2013-04-04 23:18:00,44.1,36.7,30.03,NNW,328,8.0,10.0,75,0.00,,,0.00,Wunderground v.1.15,2013-04-05 04:18:00,
2013-04-04 23:20:00,44.1,36.7,30.03,NNW,328,8.0,8.0,75,0.00,,,0.00,Wunderground v.1.15,2013-04-05 04:20:00,
2013-04-04 23:24:00,44.2,36.8,30.03,NNW,338,8.0,8.0,75,0.00,,,0.00,Wunderground v.1.15,2013-04-05 04:24:00,
2013-04-04 23:28:00,44.3,36.5,30.03,NNW,338,8.0,9.0,74,0.00,,,0.00,Wunderground v.1.15,2013-04-05 04:28:00,
2013-04-04 23:30:00,44.2,36.4,30.03,NW,321,8.0,8.0,74,0.00,,,0.00,Wunderground v.1.15,2013-04-05 04:30:00,
2013-04-04 23:32:00,44.0,36.6,30.03,NW,319,8.0,8.0,75,0.00,,,0.00,Wunderground v.1.15,2013-04-05 04:32:00,
2013-04-04 23:34:00,43.8,36.4,30.03,NW,321,8.0,8.0,75,0.00,,,0.00,Wunderground v.1.15,2013-04-05 04:34:00,
2013-04-04 23:38:00,43.9,36.5,30.03,NW,326,8.0,12.0,75,0.00,,,0.00,Wunderground v.1.15,2013-04-05 04:38:00,
2013-04-04 23:44:00,44.3,36.2,30.03,NW,314,10.0,10.0,73,0.00,,,0.00,Wunderground v.1.15,2013-04-05 04:44:00,
2013-04-04 23:50:00,44.3,36.2,30.04,North,358,9.0,9.0,73,0.00,,,0.00,Wunderground v.1.15,2013-04-05 04:50:00,
2013-04-04 23:52:00,44.3,36.2,30.04,NNW,345,10.0,11.0,73,0.00,,,0.00,Wunderground v.1.15,2013-04-05 04:52:00,
2013-04-04 23:58:00,44.4,36.3,30.04,NNW,328,11.0,13.0,73,0.00,,,0.00,Wunderground v.1.15,2013-04-05 04:58:00,